Dauntless Aviation
Airports North America United States Texas
63TE

FLYING S RANCH AIRPORT

KENNARD, TX, USA

Airport Info
Suggest Updated Information for this Airport

Location

Latitude / Longitude: 31°21'12"N / 95°12'20"W
  31°21.2109'N / 95°12.3463'W
  31.3535 / -95.2058
Elevation: 370 ft. (estimated)
Variation: 06E (1985)
From city: 01 miles SW of KENNARD, TX

Operations

Facility use: Private
Sectional chart: HOUSTON
Control tower: no
Boundary ARTCC: HOUSTON
FSS: MONTGOMERY COUNTY [1-800-WX-BRIEF]
Segmented circle: no

Communications

Nearby radio navigation aids

VOR radial/distance VOR name Freq Var
LFK 295oT/27.6 LUFKIN VORTAC 112.10 05E
 
NDB name Hdg/Dist Freq Var ID
NADOS 252oT/26.1 253 05E OC
CHEROKEE COUNTY 179oT/31.0 263 05E JSO
NACOGDOCHES 235oT/31.1 391 05E GXD
PALESTINE 135oT/36.0 375 04E PSN

Services

Runway Information

Runway 14/32

Dimensions: 2000 x 100 ft.
Surface: NATURAL SOIL,NO SPECIAL SURFACE TREATMENT
 
Runway 14
Runway 32
 

Additional Remarks

Instrument Procedures

No published instrument procedures available
Topographic chart at:
Satellite photo at:
Airport distance calculator
From:
Weather Reports

METAR

KDKR
10.5nm SW
KDKR 301830Z AUTO 24005KT 10SM CLR 34/22 A3004 RMK AO2
KLFK
24.5nm E
KLFK 301753Z AUTO VRB04KT 10SM FEW038 33/22 A3003 RMK AO2 SLP162 T03280222 10333 20244 58007
KOCH
28.1nm NE
KOCH 301835Z 24007KT 220V280 10SM FEW044 FEW050 A3000 RMK AO1
KJSO
30.8nm NW
KJSO 301835Z AUTO 22007KT 180V240 10SM CLR 33/20 A3005 RMK AO2 T03370201
KPSN
36.1nm NW
KPSN 301835Z AUTO 19007KT 10SM CLR 33/21 A3002 RMK AO2 T03400217

TAF

KLFK
24.5nm E
KLFK 301753Z 3018/3118 21007KT P6SM SCT040 FM302000 19006KT P6SM VCTS SCT045CB SCT250 TEMPO 3020/3022 -TSRA BKN050CB FM310000 17004KT P6SM FEW050 SCT250 FM311000 VRB03KT 6SM BR SCT020 TEMPO 3112/3114 5SM BR BKN015 FM311400 23005KT P6SM FEW250
Safelog

 

Dauntless Aviation

© 2007-2016 Dauntless Aviation, all rights reserved
Information provided via PilotNav comes from a variety of official and unofficial data sources. As errors are possible, do not use PilotNav for primary flight planning purposes. Verify any information that you receive via PilotNav with current and canonical charts and other official documents. The material in this database is subject to database copyrights held by Dauntless Aviation and may not be copied without the express permission of Dauntless Aviation - licenses for use of part of all of this data are available for purchase; enquire via the Dauntless Aviation helpdesk. A number of mechanisms and markers exist in the database to protect against and identify infringement / copyright. Automated queries against this website are stictly prohibited, and all activity is logged and analyzed.